Location: Unspecified
(0.0000°N, 0.0000°E)
Time: 22:34:11
(UTC+00:00)

DMSP F15 (USA 147) - Pass Details

Date: 08 October 2020
Orbit: 829 x 845 km, 99.0° (Epoch: 26 October)

Event Time Altitude Azimuth Distance (km) Brightness Sun altitude
Rises 04:42:59 0° 342° (NNW) 3,355 8.1 -16.0°
Reaches altitude 10° 04:46:06 10° 323° (NW) 2,426 7.2 -15.3°
Enters shadow 04:46:09 10° 323° (NW) 2,416 7.2 -15.3°
